Temp
70 63 59 66 68 70 67 65 64 69 72 66 63 63 67 68 66 64 65 68 68 69 70 69 67 66 64 64 63 63 63 62 60 58 55 55 54 56 56 57 60 60 60 60
66 58 70 75 73 69 68 63 62 68 69 65 63 62 68 71 66 65 65 66 68 69 70 68 65 63 63 63 63 62 63 62 60 57 56 55 55 55 56 57 58 59 60 59
64 69 75 72 68 66 64 62 63 63 65 66 61 56 61 69 73 70 68 69 70 70 69 67 62 61 61 61 61 62 62 62 60 59 57 56 55 55 54 55 55 57 60 59
68 74 69 66 66 68 59 68 68 64 58 49 62 46 60 67 66 70 71 68 68 69 70 69 64 62 61 60 62 62 62 62 61 59 56 53 51 49 52 53 54 56 59 58
64 64 63 63 66 70 62 65 63 62 56 54 56 48 55 66 62 67 70 71 68 69 69 67 65 64 64 62 60 60 61 61 60 58 56 53 52 52 53 53 54 54 56 58
67 70 69 68 71 69 66 62 59 58 53 42 54 54 53 61 67 68 70 71 69 68 68 67 66 65 63 61 60 59 59 59 59 57 56 54 52 52 51 51 51 51 53 53
64 65 69 71 61 63 61 54 44 41 40 41 59 55 59 66 67 67 67 67 67 66 65 64 63 62 61 58 58 58 57 56 57 57 56 55 54 53 52 52 50 51 50 51
56 53 63 68 63 57 56 56 47 39 41 48 55 46 57 70 68 67 69 68 66 64 64 62 63 62 61 60 58 57 57 56 57 57 56 56 55 52 52 53 52 51 50 51
57 58 71 69 69 67 58 50 60 51 54 47 52 59 66 69 63 64 65 64 62 62 62 62 63 63 62 60 59 59 57 57 57 57 56 56 55 54 52 53 53 51 52 56
64 55 67 66 67 66 62 63 48 48 38 37 49 52 53 61 62 62 61 60 61 62 62 62 63 62 63 62 61 61 59 57 57 57 56 57 55 55 54 53 52 52 53 53
66 60 58 57 55 55 54 52 55 54 51 41 42 48 64 63 65 64 62 62 61 61 62 63 63 63 61 61 60 59 59 58 57 57 56 55 54 55 54 53 53 53 53 53
68 60 52 53 63 65 62 57 57 48 45 51 51 51 69 63 68 68 65 65 62 62 61 62 62 61 61 59 59 58 57 57 57 57 56 55 54 54 53 53 53 54 53 54
64 56 47 51 55 58 55 60 61 59 55 50 46 51 66 63 64 65 64 63 63 62 60 60 60 61 61 60 59 57 57 56 57 57 55 54 53 52 51 52 53 54 54 54
61 57 53 45 52 56 50 56 59 57 49 50 51 55 61 60 61 61 61 63 63 63 62 60 58 60 60 60 60 58 57 57 56 55 54 52 51 52 51 52 52 53 54 54
59 51 56 58 61 62 60 57 56 54 55 50 55 56 63 66 64 63 65 64 63 63 62 61 59 59 58 58 58 58 57 57 56 54 53 51 52 52 52 52 52 53 52 53
49 43 51 52 59 59 57 60 60 57 57 57 57 56 67 66 65 64 66 66 64 64 63 63 61 61 60 59 57 57 56 55 55 53 52 53 53 53 51 51 51 51 51 50
38 38 39 37 53 55 49 56 59 60 61 58 51 59 62 64 65 67 64 64 63 63 63 62 61 61 60 58 60 55 55 56 54 53 53 53 53 52 51 52 51 49 48 49
39 38 36 34 42 35 55 65 65 61 63 62 62 63 64 64 65 65 64 62 62 63 62 60 60 58 57 57 56 56 56 54 53 52 52 52 52 51 51 50 48 47 48 48
46 42 36 33 34 43 55 60 59 55 54 63 61 63 65 67 62 60 66 64 62 61 61 59 58 56 55 55 55 54 53 52 52 51 51 52 52 50 49 47 46 46 47 47
49 47 39 35 32 32 47 61 64 60 45 60 61 63 63 62 52 58 62 63 61 62 60 58 58 58 55 54 54 52 50 50 49 51 52 52 51 49 48 47 46 46 46 49
39 37 32 32 30 37 52 62 61 45 48 58 60 63 62 57 60 60 62 60 61 59 58 58 57 55 54 54 53 50 49 48 51 53 53 52 50 49 48 47 46 46 46 47
37 33 32 35 31 30 48 49 43 45 53 55 58 59 56 56 56 57 57 57 57 56 56 56 53 52 53 54 52 50 48 51 53 52 51 50 49 51 53 46 45 45 45 44
33 39 34 35 37 44 49 47 48 51 51 54 54 54 56 54 55 55 53 54 56 56 55 54 52 51 53 53 52 49 50 52 52 50 48 48 49 49 49 46 45 44 44 43
43 47 38 36 45 45 49 53 53 51 49 53 56 56 56 54 54 54 53 53 54 55 54 53 52 51 50 52 53 51 52 53 51 48 47 47 46 47 47 48 47 44 43 41
41 44 41 41 46 49 50 50 52 52 52 53 56 56 54 53 54 54 54 54 55 54 54 52 51 51 51 51 52 52 53 52 48 47 47 46 47 46 45 46 45 46 43 44
42 40 37 38 49 48 50 54 55 51 52 55 54 54 56 56 55 55 55 54 55 54 52 51 53 51 51 51 51 52 52 50 48 46 46 45 45 44 44 43 44 52 51 51
MSLP
1011.28 1011.08 1010.26 1010.02 1009.98 1009.44 1009.37 1009.32 1008.97 1008.59 1008.67 1010.10 1010.50 1010.56 1010.62 1011.00 1011.46 1011.82 1012.04 1012.11 1012.55 1012.99 1013.81 1014.87 1015.76 1016.59 1017.20 1017.59 1017.84 1017.99 1018.29 1018.63 1019.03 1019.48 1019.85 1020.00 1020.15 1019.93 1019.93 1019.76 1019.66 1019.71 1019.65 1019.53
1010.86 1010.26 1009.56 1009.09 1008.98 1009.18 1009.19 1009.40 1009.20 1008.99 1009.42 1010.02 1010.16 1009.84 1009.45 1009.26 1009.40 1009.84 1010.49 1011.05 1011.50 1012.23 1013.00 1014.09 1015.31 1016.24 1016.89 1017.41 1017.67 1017.74 1018.11 1018.59 1018.98 1019.42 1019.74 1019.97 1019.97 1019.90 1019.78 1019.62 1019.62 1019.53 1019.42 1019.27
1009.62 1009.09 1008.64 1008.99 1008.90 1009.14 1009.32 1009.39 1009.33 1009.39 1009.65 1009.91 1010.11 1009.40 1008.03 1007.40 1007.70 1008.09 1008.80 1009.46 1010.27 1010.93 1011.97 1013.24 1014.58 1015.74 1016.40 1016.92 1017.24 1017.63 1017.85 1018.27 1018.74 1019.16 1019.56 1019.80 1019.89 1019.85 1019.83 1019.71 1019.62 1019.33 1019.10 1018.96
1009.17 1008.80 1008.93 1008.92 1008.85 1009.20 1009.28 1009.23 1009.42 1009.85 1010.29 1010.36 1010.00 1008.80 1007.54 1006.63 1006.30 1006.49 1006.91 1008.11 1008.94 1009.99 1010.93 1012.13 1013.53 1014.81 1015.79 1016.42 1016.84 1017.15 1017.61 1017.99 1018.36 1018.79 1019.23 1019.65 1019.94 1020.07 1019.91 1019.66 1019.38 1019.17 1018.81 1018.68
1008.74 1008.88 1009.06 1008.95 1008.84 1009.02 1009.54 1009.84 1010.16 1010.53 1010.75 1010.68 1009.99 1009.57 1006.44 1005.25 1004.78 1004.96 1005.44 1006.49 1007.71 1008.83 1010.03 1011.15 1012.42 1013.72 1014.76 1015.71 1016.45 1016.82 1017.30 1017.60 1018.00 1018.40 1018.87 1019.33 1019.67 1019.64 1019.47 1019.36 1019.21 1019.04 1018.71 1018.47
1008.86 1009.04 1008.92 1008.72 1009.01 1009.39 1009.91 1010.66 1010.97 1011.19 1011.42 1010.47 1009.34 1008.62 1005.17 1004.69 1003.53 1003.89 1004.26 1005.24 1006.52 1008.03 1009.25 1010.47 1011.65 1012.96 1014.03 1014.96 1015.81 1016.46 1017.01 1017.35 1017.65 1018.12 1018.52 1018.75 1019.08 1019.24 1019.24 1019.15 1019.08 1018.80 1018.61 1018.51
1008.76 1008.32 1008.52 1008.63 1009.32 1010.01 1010.41 1010.93 1011.22 1011.62 1011.24 1009.23 1007.50 1006.61 1004.22 1002.97 1003.07 1003.52 1004.20 1005.12 1006.19 1007.55 1008.92 1010.15 1011.32 1012.38 1013.48 1014.44 1015.21 1015.96 1016.65 1017.12 1017.35 1017.74 1017.92 1018.14 1018.34 1018.45 1018.63 1018.64 1018.63 1018.59 1018.44 1018.21
1007.52 1007.14 1007.64 1007.87 1008.04 1008.59 1009.60 1010.02 1010.04 1009.78 1009.55 1008.36 1007.42 1005.64 1003.40 1002.65 1002.65 1003.41 1004.10 1005.05 1006.26 1007.62 1008.71 1009.85 1010.84 1011.83 1012.78 1013.74 1014.57 1015.36 1016.03 1016.59 1016.91 1017.10 1017.37 1017.57 1017.65 1017.73 1017.79 1017.92 1018.02 1018.06 1017.97 1017.81
1006.24 1005.24 1005.41 1006.12 1006.94 1007.93 1008.64 1009.31 1009.28 1009.45 1008.79 1008.51 1006.17 1004.03 1002.64 1002.20 1002.91 1003.49 1004.23 1005.36 1006.34 1007.38 1008.36 1009.30 1010.25 1011.14 1012.05 1012.98 1013.79 1014.58 1015.27 1015.80 1016.15 1016.44 1016.76 1016.92 1017.00 1017.11 1017.31 1017.41 1017.45 1017.44 1017.40 1017.30
1005.09 1005.00 1005.04 1005.96 1007.14 1007.38 1007.59 1008.36 1009.29 1009.43 1008.44 1007.37 1004.81 1003.43 1001.98 1001.58 1002.13 1003.12 1004.28 1005.08 1006.09 1007.00 1007.92 1008.75 1009.55 1010.37 1011.27 1012.06 1012.96 1013.73 1014.37 1014.94 1015.40 1015.76 1016.04 1016.26 1016.43 1016.58 1016.75 1016.85 1016.88 1016.85 1016.81 1016.61
1005.10 1005.65 1005.52 1006.39 1006.09 1006.11 1007.47 1007.88 1007.69 1007.62 1007.03 1005.76 1004.28 1002.43 1001.06 1001.17 1001.48 1002.55 1003.69 1004.71 1005.55 1006.35 1007.18 1008.01 1008.92 1009.79 1010.70 1011.34 1012.12 1012.86 1013.59 1014.21 1014.77 1015.12 1015.43 1015.69 1015.96 1016.11 1016.26 1016.33 1016.32 1016.28 1016.09 1015.90
1004.62 1005.08 1005.07 1005.08 1005.09 1005.39 1005.54 1005.51 1006.08 1006.12 1005.37 1004.64 1003.37 1001.02 1000.31 1000.42 1001.07 1001.67 1002.87 1003.98 1004.99 1005.98 1006.66 1007.52 1008.34 1009.16 1010.02 1010.84 1011.50 1012.19 1012.89 1013.58 1014.17 1014.49 1014.81 1015.20 1015.44 1015.63 1015.79 1015.85 1015.80 1015.71 1015.51 1015.38
1005.03 1004.87 1004.99 1004.84 1005.32 1005.11 1004.54 1004.81 1005.16 1005.27 1005.28 1003.56 1002.70 1000.58 999.96 1000.06 1000.46 1001.20 1002.20 1003.21 1004.10 1005.19 1006.09 1006.94 1007.82 1008.56 1009.27 1010.12 1010.99 1011.64 1012.34 1013.01 1013.56 1013.86 1014.33 1014.74 1015.06 1015.28 1015.44 1015.42 1015.33 1015.15 1015.05 1014.84
1005.41 1005.28 1004.79 1003.54 1003.03 1003.61 1003.90 1003.66 1003.65 1004.04 1003.90 1001.79 1001.90 1000.83 1000.71 1000.50 1000.72 1001.41 1001.96 1002.44 1003.14 1004.19 1005.16 1006.15 1007.08 1007.87 1008.53 1009.37 1010.22 1011.04 1011.81 1012.41 1012.93 1013.39 1013.89 1014.29 1014.67 1014.78 1014.90 1014.82 1014.72 1014.61 1014.45 1014.22
1007.26 1006.11 1005.15 1003.96 1003.14 1002.29 1001.59 1001.65 1001.79 1001.83 1000.91 1001.58 1000.25 999.65 999.23 999.99 1000.28 1000.61 1000.94 1001.72 1002.69 1003.56 1004.41 1005.19 1006.09 1007.00 1007.79 1008.68 1009.57 1010.32 1011.07 1011.70 1012.28 1012.87 1013.34 1013.75 1013.95 1014.11 1014.23 1014.23 1014.15 1014.01 1013.86 1013.67
1010.52 1008.79 1006.45 1004.16 1003.27 1002.25 1001.16 1000.29 999.97 1000.00 999.85 1000.00 1000.46 998.22 998.79 999.18 999.03 999.44 1000.38 1001.12 1001.91 1002.38 1003.15 1004.08 1005.11 1006.16 1007.12 1008.02 1008.93 1009.74 1010.47 1011.12 1011.83 1012.41 1012.86 1013.16 1013.36 1013.57 1013.68 1013.64 1013.56 1013.42 1013.32 1013.14
1012.99 1011.12 1009.32 1005.65 1003.67 1001.67 999.82 998.56 998.31 998.48 998.55 998.85 998.92 995.97 998.82 998.49 999.13 999.03 999.32 999.93 1000.54 1001.41 1002.40 1003.24 1004.27 1005.30 1006.41 1007.37 1008.25 1009.27 1009.93 1010.68 1011.36 1011.92 1012.30 1012.59 1012.95 1013.10 1013.15 1012.95 1012.94 1013.03 1012.98 1012.70
1011.55 1011.13 1009.98 1007.07 1005.34 999.98 997.70 997.28 997.08 997.34 997.17 997.45 997.31 996.54 997.57 997.87 998.25 998.18 998.48 999.26 1000.02 1000.92 1001.81 1002.66 1003.81 1004.89 1006.03 1006.98 1007.83 1008.66 1009.48 1010.25 1010.88 1011.43 1011.88 1012.20 1012.42 1012.53 1012.55 1012.60 1012.66 1012.69 1012.53 1012.44
1010.31 1010.10 1008.88 1006.90 1004.66 1001.46 998.29 996.82 996.15 995.98 996.00 996.33 996.59 996.43 996.90 997.13 997.98 997.71 998.10 998.79 999.68 1000.45 1001.33 1002.37 1003.43 1004.71 1005.99 1006.92 1007.66 1008.63 1009.49 1010.13 1010.74 1011.22 1011.58 1011.75 1011.92 1012.07 1012.15 1012.25 1012.30 1012.23 1012.08 1011.90
1008.91 1009.02 1008.74 1008.08 1004.37 1001.40 999.05 997.03 995.93 996.66 996.03 996.43 996.45 995.84 996.25 997.15 997.61 997.10 997.71 998.50 999.56 1000.55 1001.40 1002.48 1003.59 1004.76 1005.88 1006.81 1007.66 1008.74 1009.61 1010.14 1010.77 1010.99 1011.15 1011.23 1011.35 1011.67 1011.80 1011.80 1011.67 1011.49 1011.42 1011.26
1008.31 1008.65 1008.95 1007.60 1006.49 1004.29 1001.21 997.92 996.83 997.78 997.42 996.67 996.45 995.74 996.11 996.66 996.40 996.95 997.22 998.39 999.59 1000.66 1001.75 1002.77 1003.81 1004.88 1005.90 1006.77 1007.72 1008.79 1009.54 1010.03 1010.30 1010.49 1010.63 1010.79 1010.91 1011.17 1011.18 1011.16 1011.04 1010.98 1010.91 1010.72
1008.12 1008.26 1008.10 1007.23 1006.29 1005.48 1002.62 999.84 1000.96 1002.45 1000.37 998.89 997.89 996.61 996.27 996.52 996.86 997.49 998.12 998.93 999.88 1001.04 1002.24 1003.18 1004.15 1005.05 1005.86 1006.68 1007.60 1008.52 1009.13 1009.46 1009.79 1010.01 1010.20 1010.41 1010.53 1010.59 1010.43 1010.59 1010.54 1010.44 1010.31 1010.09
1008.78 1008.11 1007.65 1007.33 1005.56 1004.23 1003.37 1003.08 1002.72 1002.48 1002.22 1000.36 999.82 998.51 997.69 997.71 997.91 998.58 999.22 999.82 1000.67 1001.33 1002.48 1003.39 1004.27 1005.13 1005.89 1006.52 1007.33 1008.23 1008.68 1009.00 1009.33 1009.54 1009.77 1010.01 1010.12 1010.14 1010.03 1010.11 1010.01 1009.88 1009.77 1009.66
1007.51 1007.18 1007.09 1007.25 1004.11 1003.53 1002.95 1002.07 1002.99 1002.71 1003.11 1001.78 1000.92 999.93 999.02 999.14 998.91 999.18 999.92 1000.64 1001.38 1001.96 1002.67 1003.54 1004.37 1005.24 1006.02 1006.42 1007.01 1007.70 1008.19 1008.62 1008.98 1009.23 1009.45 1009.61 1009.71 1009.75 1009.73 1009.63 1009.50 1009.39 1009.29 1009.31
1007.49 1007.35 1005.98 1004.92 1002.43 1003.21 1002.79 1002.68 1002.03 1001.33 1001.35 1000.56 1000.52 1000.31 999.55 999.61 999.99 999.79 1000.14 1000.77 1001.69 1002.37 1002.96 1003.57 1004.34 1005.21 1005.89 1006.32 1006.92 1007.44 1007.91 1008.31 1008.69 1008.97 1009.21 1009.31 1009.33 1009.33 1009.27 1009.16 1008.98 1008.83 1008.79 1008.90
1006.70 1005.92 1005.54 1003.55 1003.49 1002.86 1001.94 1001.67 1001.58 1001.27 1000.48 999.95 999.74 999.63 999.65 999.54 999.77 1000.06 1000.29 1001.03 1001.76 1002.26 1002.79 1003.54 1004.35 1005.16 1005.71 1006.13 1006.70 1007.19 1007.57 1008.03 1008.38 1008.78 1008.96 1009.03 1008.96 1008.99 1008.95 1008.77 1008.49 1008.15 1008.07 1008.14
Wind_Speed
10 5 8 13 14 14 2 9 10 7 12 10 14 14 15 16 17 15 16 16 16 15 13 13 9 8 6 6 7 8 5 3 3 2 2 2 2 2 2 2 3 5 4 5
6 12 14 10 6 12 9 10 10 9 6 5 9 15 16 17 21 23 20 17 16 14 14 14 11 8 8 9 8 5 6 5 4 3 1 0 2 2 3 2 3 4 4 6
13 3 11 7 4 6 9 11 10 8 3 6 8 12 21 16 16 17 21 18 17 16 15 14 13 10 8 8 8 7 5 7 6 5 2 1 3 3 3 3 3 3 5 6
11 14 7 7 10 11 12 7 9 4 3 4 8 7 13 12 17 19 18 19 17 15 13 14 16 13 10 8 6 8 7 6 6 7 3 1 1 2 2 3 3 4 6 6
3 7 7 8 11 9 7 2 2 5 6 8 10 6 6 8 7 14 16 16 17 15 12 14 14 15 12 10 8 7 7 7 6 4 4 3 3 2 3 3 5 5 5 5
12 3 7 11 2 3 9 3 2 3 3 8 12 13 8 11 13 8 10 12 13 14 12 11 11 10 11 9 8 8 8 6 5 5 5 6 5 5 3 4 4 4 3 4
13 17 4 5 5 1 5 4 3 4 4 9 5 13 15 6 4 3 7 8 10 11 11 10 12 11 10 10 9 8 7 7 6 7 6 5 6 6 7 6 3 4 3 4
10 10 18 16 15 10 13 11 7 7 8 11 4 7 6 7 8 5 9 8 10 10 10 10 12 11 11 11 10 10 9 8 8 7 6 6 7 4 4 4 3 4 4 4
11 15 8 12 13 14 9 11 11 11 15 9 8 12 10 7 8 7 10 9 10 11 11 13 12 13 11 12 11 10 10 8 8 8 7 6 5 4 4 6 5 4 5 6
8 18 8 8 9 11 10 2 4 5 6 9 8 10 8 6 12 11 10 11 9 11 12 13 13 13 11 10 11 11 10 9 9 8 6 5 4 4 5 5 6 5 7 7
19 12 2 8 13 16 6 7 8 4 9 5 10 8 6 6 4 14 11 10 10 10 13 13 12 10 9 8 9 9 9 9 7 7 6 4 4 5 5 5 6 7 7 7
19 8 15 20 10 20 18 14 21 9 8 10 16 17 7 3 8 9 11 11 10 9 9 10 11 10 10 9 8 9 8 8 8 7 5 5 5 5 5 6 7 7 7 7
5 8 15 18 6 3 12 19 18 20 11 21 16 12 4 5 8 9 10 11 11 11 10 9 9 11 11 11 9 8 8 8 8 7 6 5 5 5 5 7 7 7 7 8
5 10 15 19 21 9 10 16 22 21 17 24 21 24 12 7 8 9 8 9 12 13 14 11 9 10 10 10 10 9 8 8 8 7 6 5 5 6 6 7 7 7 7 8
6 19 22 25 24 20 19 19 27 27 31 23 23 26 22 15 11 13 16 11 10 13 14 14 13 10 9 9 9 9 8 8 7 6 6 6 6 6 6 6 7 7 7 7
20 8 23 25 27 28 28 28 21 28 29 26 24 33 18 8 7 5 13 14 15 14 16 16 13 12 10 11 9 8 8 8 7 6 6 7 5 6 6 7 7 7 7 7
14 8 15 20 27 26 29 30 28 21 20 21 24 36 6 14 12 15 10 8 8 10 11 14 16 13 11 9 11 9 8 8 7 7 6 4 5 6 7 7 6 6 6 6
19 21 9 14 23 36 17 22 23 21 25 23 23 24 17 17 10 9 6 8 8 9 8 9 10 9 9 8 8 8 8 7 6 5 4 4 5 6 5 5 5 6 6 7
21 17 9 11 16 19 18 22 16 13 15 17 24 26 24 18 7 9 9 8 8 7 8 8 8 8 8 9 8 8 7 5 4 4 5 5 5 4 4 5 6 6 6 6
11 11 9 12 7 11 19 15 7 4 16 9 11 22 21 10 13 10 10 9 8 7 8 9 10 9 9 8 8 8 7 5 5 5 7 5 3 3 5 7 7 5 5 8
8 3 10 10 6 11 11 17 6 13 8 4 6 18 13 11 10 6 9 9 9 9 10 9 9 9 9 9 8 8 7 7 7 7 4 3 4 4 6 7 4 5 5 6
15 7 6 4 3 15 18 18 8 12 22 14 11 8 3 8 8 8 9 10 12 12 10 9 8 8 8 9 8 7 7 6 6 5 4 4 4 5 6 6 5 5 6 6
8 6 6 5 4 7 14 7 12 19 25 17 11 11 5 7 5 7 7 9 9 13 10 8 8 8 8 8 8 7 7 6 5 4 4 4 6 5 5 6 6 5 4 4
10 11 7 4 15 19 17 18 11 7 15 19 14 10 6 4 5 7 7 7 8 9 11 7 9 8 7 7 7 7 6 5 4 4 4 4 4 6 6 4 4 4 4 2
13 13 21 22 25 14 15 15 21 15 18 14 12 8 3 3 4 5 6 7 7 9 9 8 7 7 7 7 7 6 4 3 2 3 4 5 4 5 5 5 4 5 1 2
13 19 13 19 13 15 17 10 14 10 12 10 9 8 6 8 7 6 6 7 7 10 8 8 8 7 7 7 6 4 5 4 3 4 3 4 4 4 4 4 5 7 5 12
Wind_Direction
209 214 213 211 217 246 359 298 309 266 145 181 228 242 239 208 209 215 217 216 213 209 190 179 170 176 189 195 204 193 159 112 101 66 55 2 319 315 334 328 351 316 312 320
168 238 243 245 239 223 258 270 276 286 160 183 255 257 255 235 211 209 210 214 217 207 191 176 161 178 201 195 213 170 172 155 119 120 109 272 281 313 270 268 328 292 307 298
223 230 198 223 203 230 231 246 258 277 93 241 266 278 251 248 242 206 214 209 212 208 197 180 172 183 195 211 190 187 180 156 154 152 141 287 351 327 335 344 287 269 291 292
231 240 199 218 238 218 245 273 240 310 304 258 139 283 300 276 225 228 212 202 206 210 199 185 176 185 186 202 205 182 179 191 158 170 161 172 235 268 278 260 268 302 294 290
223 162 208 218 224 219 241 82 181 237 257 285 252 257 240 267 203 218 211 202 198 198 199 186 175 179 186 181 192 175 205 186 182 157 144 195 235 243 251 284 303 295 288 305
250 46 225 228 231 327 108 149 210 271 245 254 226 227 253 230 229 230 201 190 178 186 194 179 175 170 179 175 179 173 190 197 162 152 217 214 221 244 269 273 275 281 286 294
234 225 209 234 139 336 176 175 237 234 193 245 236 218 233 217 289 247 154 164 169 168 179 174 175 185 177 178 174 168 183 206 180 209 208 227 236 230 242 257 262 288 284 278
220 227 185 190 208 178 196 192 193 237 227 254 75 236 245 222 132 130 123 141 145 161 171 183 185 187 184 183 176 178 185 193 201 209 209 228 235 222 226 238 254 265 258 269
206 241 225 178 197 208 172 216 239 282 277 278 252 261 263 235 160 157 153 153 168 171 175 183 185 192 186 183 185 184 187 198 195 200 216 221 237 249 243 257 254 253 266 270
240 268 229 153 188 232 238 146 185 221 243 236 245 241 235 206 179 170 177 181 186 171 179 185 189 189 191 182 187 189 187 191 195 202 209 213 222 260 262 261 259 267 266 261
224 245 321 100 206 178 188 211 229 228 214 226 261 252 175 67 56 180 180 183 182 182 185 188 188 186 184 179 179 180 188 187 191 201 206 193 234 248 263 270 272 263 261 273
235 220 243 216 200 213 210 209 207 207 214 234 241 244 272 290 186 150 170 174 178 183 188 184 181 178 178 183 184 180 177 182 191 203 188 210 235 247 261 265 273 276 279 288
197 239 252 265 180 244 228 224 220 235 264 250 247 257 175 96 151 157 159 163 174 181 176 178 177 187 186 184 183 175 175 188 194 195 191 215 238 252 269 275 272 282 292 285
90 230 231 233 234 173 207 215 222 224 233 243 240 259 237 185 171 175 201 193 175 177 176 181 186 191 185 183 179 178 186 188 190 187 200 218 237 248 255 261 272 274 272 282
283 246 248 261 266 261 233 209 216 217 230 229 243 246 244 238 227 206 197 194 181 183 181 186 187 187 182 179 177 177 182 183 172 182 201 217 227 239 254 267 270 270 273 285
326 290 291 258 255 254 261 259 235 217 228 239 246 261 242 258 258 247 195 201 210 201 187 190 184 179 189 182 177 170 178 173 173 190 217 224 225 245 255 259 261 275 284 288
285 299 302 274 264 253 242 244 246 238 223 222 227 240 216 253 238 254 249 195 190 180 184 182 184 182 179 179 172 174 171 165 184 202 216 226 240 249 257 260 284 293 297 295
247 257 266 269 268 245 247 231 242 242 239 230 244 254 248 241 238 231 165 181 176 173 181 167 165 160 163 166 156 151 153 165 179 203 226 239 248 258 268 296 298 299 295 291
220 250 263 262 248 273 250 232 217 212 244 234 236 252 253 250 248 233 173 170 175 174 164 151 143 145 149 148 144 144 152 162 192 217 239 244 250 273 299 301 291 284 288 291
229 259 261 270 264 247 232 239 199 140 255 190 236 250 249 238 239 240 179 169 155 135 131 133 142 141 137 144 138 141 159 175 202 222 236 235 264 282 279 274 274 267 274 291
268 225 247 255 276 299 317 254 166 212 262 191 263 254 243 217 222 165 134 131 131 128 130 128 134 143 142 142 141 154 174 194 209 222 224 244 249 263 265 267 271 276 285 291
281 257 252 233 240 262 348 330 28 327 335 346 336 349 219 123 108 105 113 122 132 134 134 132 131 136 140 140 143 170 184 199 212 215 222 242 255 264 274 274 275 282 284 280
295 304 306 252 244 239 284 247 318 326 316 327 340 338 16 107 110 121 127 135 149 143 142 135 138 138 141 151 158 173 198 195 205 211 243 254 257 262 269 274 283 282 292 289
281 263 263 266 247 253 278 302 278 313 304 306 314 323 346 340 143 132 137 145 150 149 147 142 139 146 159 163 161 178 192 192 203 235 256 264 269 274 269 270 279 282 277 349
271 297 274 279 275 287 261 286 272 245 253 270 265 263 289 298 253 152 146 149 157 157 151 150 151 158 164 159 170 176 166 168 227 266 273 272 265 273 276 271 260 274 238 330
256 253 255 265 293 298 286 286 291 260 242 248 277 310 237 209 214 189 160 158 163 160 149 146 152 151 161 157 161 168 172 179 208 254 268 269 271 273 279 279 278 270 321 309